Lake Mead Weather Center

Moon Phase Calendar



Lake Mead Water Level
Online Cameras

 


      

Current Conditions in Meadview
12/4/2021 2:33:27 AM

48°F
Feels Like 48
Clear
Humidity
29%
Pressure
30.06"
Wind
1.1 mph (NNE)
Dew Point
19°F
UV Index
0/10 (Low)
Visibility
6 mi

Hourly Forecast

Date & Time Sat, Dec 4
2:00 AM
Sat, Dec 4
3:00 AM
Sat, Dec 4
4:00 AM
Sat, Dec 4
5:00 AM
Sat, Dec 4
6:00 AM
Sat, Dec 4
7:00 AM
Sat, Dec 4
8:00 AM
Sat, Dec 4
9:00 AM
Sat, Dec 4
10:00 AM
Sat, Dec 4
11:00 AM
Sat, Dec 4
12:00 PM
Sat, Dec 4
1:00 PM
Sat, Dec 4
2:00 PM
Sat, Dec 4
3:00 PM
Sat, Dec 4
4:00 PM
Sat, Dec 4
5:00 PM
Sat, Dec 4
6:00 PM
Sat, Dec 4
7:00 PM
Sat, Dec 4
8:00 PM
Sat, Dec 4
9:00 PM
Sat, Dec 4
10:00 PM
Sat, Dec 4
11:00 PM
Sun, Dec 5
12:00 AM
Sun, Dec 5
1:00 AM
Sun, Dec 5
2:00 AM
Sun, Dec 5
3:00 AM
Sun, Dec 5
4:00 AM
Sun, Dec 5
5:00 AM
Sun, Dec 5
6:00 AM
Sun, Dec 5
7:00 AM
Sun, Dec 5
8:00 AM
Sun, Dec 5
9:00 AM
Sun, Dec 5
10:00 AM
Sun, Dec 5
11:00 AM
Sun, Dec 5
12:00 PM
Sun, Dec 5
1:00 PM
Sun, Dec 5
2:00 PM
Sun, Dec 5
3:00 PM
Sun, Dec 5
4:00 PM
Sun, Dec 5
5:00 PM
Sun, Dec 5
6:00 PM
Sun, Dec 5
7:00 PM
Sun, Dec 5
8:00 PM
Sun, Dec 5
9:00 PM
Sun, Dec 5
10:00 PM
Sun, Dec 5
11:00 PM
Mon, Dec 6
12:00 AM
Mon, Dec 6
1:00 AM
Condition
Clear

Clear

Clear

Clear

Clear

Clear

Clear

Clear

Clear

Clear

Clear

Clear

Clear

Clear

Clear

Clear

Clear

Clear

Clear

Clear

Clear

Clear

Clear

Clear

Clear

Clear

Clear

Clear

Clear

Clear

Clear

Clear

Clear

Clear

Clear

Clear

Clear

Clear

Clear

Clouds

Clouds

Clouds

Clouds

Clouds

Clouds

Clouds

Clouds

Clouds
Temperature 49°F48°F49°F50°F51°F53°F62°F66°F68°F70°F71°F72°F72°F72°F66°F62°F61°F60°F59°F59°F58°F57°F56°F56°F55°F55°F55°F54°F53°F54°F61°F65°F67°F69°F70°F71°F72°F71°F66°F62°F61°F61°F61°F60°F60°F59°F58°F57°F
Feels Like 49°F48°F49°F46°F48°F50°F59°F63°F65°F67°F69°F69°F70°F69°F63°F59°F58°F57°F56°F56°F54°F54°F53°F52°F52°F52°F51°F50°F50°F51°F58°F63°F65°F66°F68°F69°F69°F69°F63°F60°F59°F58°F58°F58°F57°F56°F55°F54°F
Cloudiness 0%0%0%0%0%0%0%0%0%0%0%0%0%0%0%0%0%0%0%0%0%0%0%0%0%0%0%0%0%0%0%0%0%0%0%2%4%5%8%15%11%13%15%15%16%85%71%81%
Visibility 6 mi6 mi6 mi6 mi6 mi6 mi6 mi6 mi6 mi6 mi6 mi6 mi6 mi6 mi6 mi6 mi6 mi6 mi6 mi6 mi6 mi6 mi6 mi6 mi6 mi6 mi6 mi6 mi6 mi6 mi6 mi6 mi6 mi6 mi6 mi6 mi6 mi6 mi6 mi6 mi6 mi6 mi6 mi6 mi6 mi6 mi6 mi6 mi
Precipitation 0%0%0%0%0%0%0%0%0%0%0%0%0%0%0%0%0%0%0%0%0%0%0%0%0%0%0%0%0%0%0%0%0%0%0%0%0%0%0%0%0%0%0%0%0%0%0%0%
Humidity 29%29%30%30%32%30%26%20%19%18%17%17%17%17%23%26%27%27%28%28%29%30%31%31%32%32%32%33%37%33%28%23%22%21%20%20%19%19%26%28%28%28%28%28%29%30%31%32%
Dew Point 20°F19°F21°F21°F24°F24°F23°F21°F21°F21°F21°F22°F22°F22°F24°F23°F23°F23°F23°F23°F23°F23°F22°F22°F22°F22°F22°F22°F24°F23°F25°F23°F24°F24°F24°F25°F24°F24°F26°F26°F25°F25°F24°F24°F24°F24°F24°F24°F
Pressure 30.06"30.06"30.06"30.06"30.09"30.09"30.12"30.12"30.12"30.09"30.06"30.03"30.03"30.03"30.03"30.03"30.06"30.06"30.06"30.06"30.06"30.06"30.06"30.06"30.03"30.03"30.06"30.06"30.06"30.06"30.09"30.09"30.09"30.06"30"29.97"29.97"29.97"29.97"30"30"30"30"30.03"30.03"30.03"30.03"30.03"
Wind Speed 0.1 mph1.1 mph1.5 mph1.4 mph1 mph0.6 mph0.3 mph1.1 mph0.9 mph1.7 mph3.4 mph3.4 mph3 mph2.4 mph1.3 mph0.5 mph1.2 mph1.9 mph1.7 mph2.1 mph0.8 mph1.2 mph1.2 mph1.2 mph1 mph1.2 mph2 mph1.3 mph1.4 mph1.7 mph0.8 mph1.7 mph2.1 mph2.9 mph3.5 mph3.8 mph4 mph3.8 mph2 mph1 mph1.1 mph1.9 mph2.4 mph3.4 mph2.6 mph3.2 mph2.6 mph1.6 mph
Wind
Direction
32°
NNE
30°
NNE
61°
ENE
123°
ESE
146°
SE
204°
SSW
317°
NW

N
356°
N
312°
NW
320°
NW
318°
NW
330°
NNW
346°
NNW
100°
E
139°
SE
359°
N

N
79°
E
134°
SE
54°
NE
69°
ENE
99°
E
83°
E
68°
ENE
29°
NNE
25°
NNE
84°
E
40°
NE
18°
NNE
18°
NNE
338°
NNW
330°
NNW
320°
NW
333°
NNW
342°
NNW

N

N
42°
NE
83°
E
110°
ESE
83°
E
47°
NE
30°
NNE
25°
NNE
21°
NNE
21°
NNE
356°
N

Daily Forecast

Date High Low Precip. Humidity
Today
Dec 4

Clear
72 °F
48 °F
0%
18%
Sunday
Dec 5

Clear
72 °F
53 °F
0%
21%
Monday
Dec 6

Clouds
71 °F
55 °F
6%
21%
Tuesday
Dec 7

Clouds
66 °F
53 °F
3%
51%
Wednesday
Dec 8

Clouds
70 °F
54 °F
0%
30%
Thursday
Dec 9

Rain
58 °F
47 °F
100%
64%
Friday
Dec 10

Rain
50 °F
43 °F
79%
27%
Saturday
Dec 11

Clear
50 °F
39 °F
0%
30%
Sunday
Dec 12

Clear
53 °F
39 °F
0%
28%
Monday
Dec 13

Clouds
57 °F
45 °F
0%
30%
Tuesday
Dec 14

Rain
61 °F
47 °F
100%
36%
Wednesday
Dec 15

Clouds
55 °F
45 °F
18%
59%
Thursday
Dec 16

Clouds
60 °F
46 °F
0%
46%
Friday
Dec 17

Clouds
66 °F
50 °F
0%
33%
Saturday
Dec 18

Clouds
63 °F
52 °F
0%
35%
Sunday
Dec 19

Clouds
60 °F
49 °F
0%
40%

Temperature 8-14 Day Outlook



Precipitation 8-14 Day Outlook




Quick Links
Lake Mead News
Lake Mead Photos
Lake Mead Videos




About Us
Contact Us
Site Map
Search Site
Advertise With Us
   
Mead.USLakes.info
THE LAKE MEAD WEBSITE

Copyright 2021, Lakes Online
Privacy    |    Legal